[[{"header":{"parameterUnit":"m.s-1","parameterCategory":1,"la1":30.2991,"la2":30.254,"lo1":-89.0895,"lo2":-89.0444,"dy":0.0017,"dx":0.0017,"nx":28,"ny":28,"refTime":"2025-08-20T09:00:00:Z","depth":0,"parameterNumber":2,"parameterNumberName":"U-component_of_WINDS"},"data":[0,0,0,0,0,0,0,0,0,0,0,0,0,0,0,0,0,0,0,0,0,0,0,0,0,0,0,0,0,0,0,0,0,0,0,0,0,0,0,0,0,0,0,0,0,0,0,0,0,0,0,0,0,0,0,0,0,0,-1.0543,-1.0544,0,-1.062,-1.062,-1.0621,-1.0628,-1.0627,-1.0626,-1.0625,-1.0703,-1.0706,-1.0708,0,0,0,0,0,0,0,0,0,0,0,0,0,-1.0403,-1.0406,-1.0543,-1.0544,-1.0545,-1.0619,-1.062,-1.0621,-1.0628,-1.0627,-1.0626,-1.0625,-1.0702,-1.0705,-1.0709,0,0,0,0,0,0,0,0,0,0,0,0,0,-1.047,-1.0407,-1.0543,-1.0557,-1.0559,-1.0619,-1.062,-1.0622,-1.0628,-1.0627,-1.0626,-1.0625,-1.0701,-1.0705,-1.0709,-1.076,0,0,-1.0722,-1.0724,0,0,0,0,0,0,0,0,-1.0466,-1.0475,-1.0554,-1.0556,-1.0559,-1.0613,-1.06,-1.0668,-1.0628,-1.0602,-1.0625,-1.0624,-1.0674,-1.068,-1.0697,-1.0764,-1.0767,-1.0723,-1.0725,-1.0727,-1.0728,0,0,0,0,0,0,0,-1.0462,-1.0472,-1.0573,-1.0555,-1.0558,-1.056,-1.0568,-1.0613,-1.0644,-1.0604,-1.0605,-1.0614,-1.0675,-1.0693,-1.0699,-1.0768,-1.0722,-1.0726,-1.0729,-1.073,-1.0881,-1.0882,0,0,0,0,0,0,-1.0454,-1.0468,-1.0571,-1.0576,-1.0509,-1.0563,-1.0573,-1.0597,-1.0643,-1.0649,-1.0615,-1.0614,-1.0687,-1.0694,-1.0702,-1.0765,-1.0727,-1.0731,-1.0733,-1.0879,-1.0881,-1.0883,0,0,0,0,0,0,-1.0451,-1.0464,-1.0568,-1.0522,-1.0536,-1.0567,-1.0594,-1.0599,-1.0617,-1.0651,-1.0657,-1.0628,-1.0686,-1.0696,-1.0746,-1.0767,-1.0733,-1.0737,-1.0878,-1.088,-1.0882,-1.089,0,0,0,0,0,0,-1.0447,-1.0462,-1.0482,-1.0523,-1.0538,-1.061,-1.0596,-1.0601,-1.0624,-1.0624,-1.0665,-1.0671,-1.0686,-1.0739,-1.075,-1.0773,-1.074,-1.0876,-1.0879,-1.0881,-1.0888,-1.0893,-1.0896,0,0,0,0,0,-1.0442,-1.0481,-1.0483,-1.0495,-1.0563,-1.0611,-1.062,-1.0637,-1.0626,-1.0646,-1.0668,-1.0669,-1.0764,-1.0744,-1.0756,-1.0781,-1.0874,-1.0878,-1.0881,-1.0886,-1.0892,-1.0896,0,0,0,0,0,0,-1.0441,-1.0486,-1.0489,-1.0542,-1.0573,-1.0612,-1.0638,-1.0642,-1.0676,-1.0674,-1.0694,-1.0703,-1.0752,-1.0772,-1.0749,-1.0833,-1.0818,-1.0824,-1.0818,-1.0823,-1.0827,-1.0821,-1.0743,0,0,0,0,0,-1.0447,-1.0483,-1.052,-1.0563,-1.0579,-1.0606,-1.0627,-1.0638,-1.0671,-1.0684,-1.071,-1.0741,-1.0778,-1.0802,-1.0838,-1.0892,-1.0901,-1.0914,-1.0918,-1.0921,-1.0926,-1.0956,-1.0963,-1.0893,-1.0893,-1.0893,0,0,-1.0459,-1.0489,-1.051,-1.0564,-1.0589,-1.0626,-1.0617,-1.0656,-1.0683,-1.069,-1.0738,-1.0758,-1.0795,-1.0847,-1.0872,-1.0865,-1.0947,-1.0926,-1.0928,-1.0931,-1.096,-1.0967,-1.0973,-1.0895,-1.0895,-1.0895,0,0,-1.0501,-1.0526,-1.0565,-1.0591,-1.063,-1.0648,-1.0657,-1.0697,-1.0711,-1.076,-1.0766,-1.0799,-1.0862,-1.0888,-1.091,-1.0963,-1.0965,-1.0974,-1.0994,-1.1024,-1.1029,-1.1034,-1.1053,-1.106,-1.0978,-1.0978,-1.0978,0,-1.0511,-1.0567,-1.0585,-1.0624,-1.0648,-1.0656,-1.0696,-1.072,-1.0768,-1.0785,-1.0777,-1.0857,-1.0882,-1.0941,-1.0954,-1.0971,-1.0983,-1.0969,-1.1027,-1.1032,-1.1037,-1.1055,-1.1062,-1.0979,-1.0979,-1.0979,-1.0979,0,-1.0578,-1.0616,-1.0643,-1.069,-1.0717,-1.0756,-1.078,-1.0806,-1.0814,-1.0833,-1.0884,-1.0915,-1.0957,-1.0972,-1.098,-1.1032,-1.1027,-1.1023,-1.1008,-1.1044,-1.1062,-1.1069,-1.098,-1.098,-1.098,-1.098,0,0,-1.0619,-1.0676,-1.0686,-1.0708,-1.0752,-1.0782,-1.0822,-1.0864,-1.0885,-1.0919,-1.0953,-1.1007,-1.1004,-1.1028,-1.104,-1.1066,-1.1106,-1.1059,-1.106,-1.1066,-1.1166,-1.1168,-1.1176,-1.1109,-1.111,-1.1111,-1.1163,0,-1.0665,-1.0736,-1.0754,-1.0815,-1.0851,-1.0861,-1.0896,-1.0927,-1.0946,-1.0979,-1.1001,-1.1038,-1.1032,-1.1047,-1.1073,-1.1096,-1.1126,-1.1093,-1.114,-1.1142,-1.113,-1.1185,-1.1187,-1.1234,-1.1169,-1.1171,-1.1172,0,-1.0727,-1.0763,-1.0827,-1.0868,-1.0884,-1.0915,-1.0955,-1.0987,-1.1023,-1.1035,-1.1063,-1.1073,-1.1115,-1.1099,-1.1158,-1.1135,-1.1156,-1.117,-1.1173,-1.1177,-1.1158,-1.119,-1.1249,-1.1256,-1.1182,-1.1182,-1.1181,0,-1.075,-1.0815,-1.0862,-1.088,-1.0928,-1.095,-1.0971,-1.1006,-1.103,-1.1066,-1.1082,-1.1122,-1.1144,-1.1175,-1.1195,-1.1182,-1.1253,-1.1238,-1.1264,-1.1263,-1.1277,-1.1276,-1.134,-1.1292,-1.1292,-1.1292,-1.1292,0,-1.0799,-1.0838,-1.0873,-1.0902,-1.0946,-1.0967,-1.1011,-1.1032,-1.1063,-1.1096,-1.1108,-1.1139,-1.1164,-1.1199,-1.1215,-1.1262,-1.1271,-1.1282,-1.1286,-1.1281,-1.128,-1.1294,-1.1291,-1.1294,-1.1293,-1.1293,-1.1293,0,-1.0832,-1.0857,-1.0909,-1.0951,-1.0962,-1.0993,-1.1029,-1.1058,-1.1078,-1.112,-1.1132,-1.1163,-1.1205,-1.1228,-1.1281,-1.1292,-1.1343,-1.1346,-1.1331,-1.1333,-1.1357,-1.1354,-1.1432,-1.1443,-1.1388,-1.1389,-1.1389,0,-1.0861,-1.0892,-1.0938,-1.0961,-1.0983,-1.102,-1.1045,-1.1068,-1.1094,-1.1138,-1.1161,-1.1204,-1.1239,-1.1305,-1.1332,-1.1373,-1.1376,-1.1401,-1.1382,-1.1376,-1.1376,-1.1374,-1.1377,-1.1403,-1.1404,-1.1404,-1.1404,0,-1.091,-1.0922,-1.0958,-1.0999,-1.1029,-1.1062,-1.1095,-1.1114,-1.1142,-1.1171,-1.1214,-1.1241,-1.1295,-1.1337,-1.138,-1.1402,-1.1408,-1.141,-1.1418,-1.1413,-1.1403,-1.1409,-1.1339,-1.1408,-1.1408,-1.1408,-1.1407,-1.1407,-1.0942,-1.097,-1.1007,-1.1047,-1.1075,-1.1105,-1.1135,-1.1159,-1.1195,-1.1241,-1.1253,-1.1298,-1.1334,-1.1392,-1.1416,-1.1451,-1.1447,-1.1459,-1.1461,-1.1464,-1.1464,-1.1398,-1.1459,-1.1459,-1.1459,-1.1459,-1.1459,0,-1.0992,-1.1016,-1.1053,-1.1099,-1.1131,-1.1135,-1.1173,-1.1199,-1.1239,-1.1272,-1.1307,-1.1357,-1.1398,-1.1429,-1.1472,-1.1494,-1.1498,-1.1505,-1.1503,-1.1508,-1.1466,-1.1455,-1.1501,-1.1501,-1.1501,-1.1501,-1.1501,-1.1501,-1.1021,-1.1068,-1.1084,-1.1145,-1.117,-1.1215,-1.1235,-1.1264,-1.1291,-1.1346,-1.1381,-1.1402,-1.1434,-1.1479,-1.1518,-1.1526,-1.1541,-1.1547,-1.1555,-1.1515,-1.1511,-1.1506,-1.1496,-1.155,-1.155,-1.1594,-1.1595,-1.1595]},{"header":{"parameterUnit":"m.s-1","parameterCategory":1,"la1":30.2991,"la2":30.254,"lo1":-89.0895,"lo2":-89.0444,"dy":0.0017,"dx":0.0017,"nx":28,"ny":28,"refTime":"2025-08-20T09:00:00:Z","depth":0,"parameterNumber":3,"parameterNumberName":"V-component_of_WINDS"},"data":[0,0,0,0,0,0,0,0,0,0,0,0,0,0,0,0,0,0,0,0,0,0,0,0,0,0,0,0,0,0,0,0,0,0,0,0,0,0,0,0,0,0,0,0,0,0,0,0,0,0,0,0,0,0,0,0,0,0,-0.2798,-0.2799,0,-0.2891,-0.2892,-0.2893,-0.2948,-0.2948,-0.2949,-0.2949,-0.3046,-0.3048,-0.305,0,0,0,0,0,0,0,0,0,0,0,0,0,-0.2672,-0.2674,-0.2798,-0.28,-0.2801,-0.2891,-0.2892,-0.2893,-0.2948,-0.2948,-0.2949,-0.2949,-0.3045,-0.3048,-0.3051,0,0,0,0,0,0,0,0,0,0,0,0,0,-0.2742,-0.2674,-0.2798,-0.2839,-0.2843,-0.2891,-0.2892,-0.2894,-0.2948,-0.2948,-0.2949,-0.2949,-0.3044,-0.3047,-0.3051,-0.3066,0,0,-0.3062,-0.3063,0,0,0,0,0,0,0,0,-0.2738,-0.2746,-0.2832,-0.2836,-0.2841,-0.2908,-0.2883,-0.2951,-0.2948,-0.2908,-0.2949,-0.2949,-0.3,-0.3007,-0.3024,-0.307,-0.3074,-0.3062,-0.3064,-0.3066,-0.3067,0,0,0,0,0,0,0,-0.2733,-0.2743,-0.2835,-0.2833,-0.2839,-0.2853,-0.2864,-0.2896,-0.2951,-0.2912,-0.2916,-0.2926,-0.3003,-0.302,-0.3026,-0.3076,-0.3062,-0.3065,-0.3067,-0.3069,-0.314,-0.3139,0,0,0,0,0,0,-0.2721,-0.2738,-0.2832,-0.2838,-0.2789,-0.2855,-0.2867,-0.2887,-0.2951,-0.2961,-0.2926,-0.2928,-0.3014,-0.3022,-0.303,-0.3052,-0.3066,-0.3069,-0.3071,-0.314,-0.3139,-0.3139,0,0,0,0,0,0,-0.2718,-0.2729,-0.2828,-0.2789,-0.2803,-0.2857,-0.2879,-0.2888,-0.2906,-0.2961,-0.2972,-0.2933,-0.3015,-0.3025,-0.3056,-0.3056,-0.3071,-0.3074,-0.314,-0.314,-0.3139,-0.3095,0,0,0,0,0,0,-0.2714,-0.2728,-0.2733,-0.2789,-0.2805,-0.2852,-0.2879,-0.289,-0.2911,-0.2916,-0.2971,-0.2981,-0.3016,-0.3051,-0.306,-0.3061,-0.3077,-0.314,-0.314,-0.3139,-0.3097,-0.3093,-0.309,0,0,0,0,0,-0.271,-0.2717,-0.2733,-0.2744,-0.2813,-0.2852,-0.2861,-0.2901,-0.2911,-0.2918,-0.2953,-0.2979,-0.3054,-0.3053,-0.3064,-0.3066,-0.3141,-0.314,-0.3139,-0.3098,-0.3094,-0.309,0,0,0,0,0,0,-0.266,-0.2725,-0.2743,-0.2769,-0.2805,-0.2861,-0.2871,-0.2895,-0.2929,-0.2931,-0.2979,-0.2991,-0.3018,-0.3046,-0.3043,-0.3084,-0.31,-0.3102,-0.3065,-0.3062,-0.3058,-0.3051,-0.3079,0,0,0,0,0,-0.2652,-0.2678,-0.2734,-0.2751,-0.2768,-0.2816,-0.2835,-0.2862,-0.2901,-0.2916,-0.2955,-0.2992,-0.3024,-0.3045,-0.3077,-0.3101,-0.3114,-0.3108,-0.3104,-0.3101,-0.3102,-0.3117,-0.3115,-0.3137,-0.3137,-0.3137,0,0,-0.2636,-0.2675,-0.2688,-0.2742,-0.2773,-0.2799,-0.2828,-0.2855,-0.2876,-0.2921,-0.2953,-0.2982,-0.3027,-0.3054,-0.3069,-0.3078,-0.3099,-0.3101,-0.3098,-0.3101,-0.3117,-0.3115,-0.3113,-0.3137,-0.3137,-0.3137,0,0,-0.2621,-0.2652,-0.267,-0.27,-0.2746,-0.2778,-0.2783,-0.2836,-0.2857,-0.2889,-0.2924,-0.2949,-0.3004,-0.3035,-0.3057,-0.3054,-0.3079,-0.3063,-0.3046,-0.306,-0.3058,-0.3057,-0.3056,-0.3055,-0.3064,-0.3064,-0.3064,0,-0.2595,-0.2636,-0.2677,-0.2702,-0.2725,-0.2766,-0.2785,-0.2813,-0.2867,-0.2883,-0.2893,-0.2962,-0.2995,-0.3031,-0.303,-0.3047,-0.3054,-0.3057,-0.3055,-0.3054,-0.3054,-0.3053,-0.3053,-0.3062,-0.3062,-0.3062,-0.3062,0,-0.2602,-0.263,-0.2639,-0.269,-0.2714,-0.2736,-0.2781,-0.2801,-0.2826,-0.2857,-0.289,-0.2932,-0.2974,-0.2984,-0.3009,-0.3024,-0.3028,-0.3046,-0.3063,-0.3049,-0.3049,-0.3049,-0.3058,-0.3059,-0.306,-0.306,0,0,-0.2558,-0.2631,-0.2634,-0.2658,-0.2712,-0.2735,-0.2759,-0.2799,-0.2815,-0.2852,-0.2874,-0.2919,-0.2936,-0.2961,-0.299,-0.3003,-0.2998,-0.3019,-0.3021,-0.3014,-0.3017,-0.3003,-0.3002,-0.3015,-0.3015,-0.3015,-0.3013,0,-0.2551,-0.2595,-0.2633,-0.2664,-0.269,-0.2731,-0.2752,-0.2788,-0.2817,-0.2845,-0.2879,-0.291,-0.2929,-0.2945,-0.2959,-0.2995,-0.2999,-0.2996,-0.3036,-0.3037,-0.3024,-0.3003,-0.2988,-0.2985,-0.3014,-0.3014,-0.3014,0,-0.2548,-0.2582,-0.2615,-0.2667,-0.2679,-0.2697,-0.2738,-0.2763,-0.2805,-0.2826,-0.2855,-0.2885,-0.2913,-0.2928,-0.2968,-0.2965,-0.2983,-0.3004,-0.3005,-0.301,-0.3025,-0.3008,-0.2984,-0.2984,-0.3014,-0.3014,-0.3014,0,-0.2512,-0.2567,-0.2594,-0.2613,-0.2674,-0.2686,-0.2712,-0.2754,-0.2776,-0.2812,-0.2827,-0.2865,-0.2886,-0.2916,-0.2956,-0.2963,-0.2992,-0.3009,-0.3011,-0.301,-0.3015,-0.3014,-0.2994,-0.3027,-0.3027,-0.3027,-0.3027,0,-0.25,-0.2519,-0.2579,-0.2595,-0.2618,-0.2662,-0.2683,-0.2713,-0.275,-0.2774,-0.2811,-0.2833,-0.2885,-0.2913,-0.2945,-0.2973,-0.2982,-0.3001,-0.3009,-0.2997,-0.2995,-0.301,-0.3012,-0.3027,-0.3027,-0.3027,-0.3027,0,-0.2465,-0.2505,-0.2537,-0.2592,-0.2607,-0.2621,-0.2668,-0.2687,-0.2719,-0.2748,-0.2758,-0.2808,-0.2843,-0.2886,-0.2935,-0.2957,-0.2982,-0.2994,-0.2968,-0.2973,-0.2972,-0.2971,-0.2961,-0.2962,-0.2993,-0.2993,-0.2992,0,-0.2454,-0.2469,-0.2526,-0.2544,-0.2569,-0.2598,-0.262,-0.2665,-0.2687,-0.2736,-0.2748,-0.2786,-0.2818,-0.2873,-0.2914,-0.2952,-0.2966,-0.296,-0.2972,-0.296,-0.2966,-0.2965,-0.2967,-0.2956,-0.2956,-0.2955,-0.2955,0,-0.2431,-0.2451,-0.2481,-0.2519,-0.2545,-0.2577,-0.2611,-0.2624,-0.2676,-0.2699,-0.2735,-0.276,-0.281,-0.2847,-0.289,-0.2918,-0.2945,-0.2951,-0.2953,-0.2942,-0.2926,-0.2935,-0.2959,-0.2951,-0.2951,-0.2952,-0.2952,-0.2952,-0.2408,-0.2424,-0.2466,-0.2499,-0.2529,-0.256,-0.258,-0.2614,-0.2645,-0.2689,-0.2713,-0.2748,-0.2791,-0.2851,-0.2878,-0.2907,-0.2917,-0.292,-0.2921,-0.2921,-0.2918,-0.2921,-0.2915,-0.2915,-0.2915,-0.2916,-0.2916,0,-0.2388,-0.2417,-0.2447,-0.2493,-0.2519,-0.2542,-0.2581,-0.2602,-0.2632,-0.2669,-0.27,-0.2742,-0.2778,-0.2822,-0.2862,-0.2876,-0.289,-0.2885,-0.2885,-0.2891,-0.2907,-0.2901,-0.2874,-0.2874,-0.2874,-0.2874,-0.2874,-0.2874,-0.238,-0.2408,-0.2432,-0.2476,-0.2505,-0.254,-0.256,-0.2589,-0.2619,-0.2663,-0.2693,-0.2722,-0.2762,-0.2805,-0.284,-0.2852,-0.2865,-0.2856,-0.2872,-0.2886,-0.289,-0.2893,-0.2888,-0.2859,-0.2859,-0.2854,-0.2854,-0.2854]}]]